Flag for South Africa Weather past 2 weeks in Rustenburg, South Africa

Now
68 °F

Mild.


Feels Like: 68 °F
Forecast: 58 / 86 °F
Wind: No wind

Location: Lanseria Civ / Mil

Current Time: Oct 21, 2014 at 12:08:06 AM

Latest Report: Oct 20, 2014 at 11:00 PM


Visibility: N/A

Pressure: 30.18 "Hg

Humidity: 24%

Dew point: 30 °F

Location of RustenburgLocation

Historic Weather in Rustenburg — Graph

°F

Rustenburg temperature yesterday

Maximum temperature yesterday: 86 °F (at 3:00 PM)
Minimum temperature yesterday: 54 °F (at 3:00 AM)
Average temperature yesterday: 73 °F

Past Weeks' High & Low Weather Summary

 TemperatureHumidityPressure
High93 °F (Oct 13, 3:00 PM)100% (Oct 12, 3:00 AM)30.42 "Hg (Oct 12, 3:00 AM)
Low48 °F (Oct 18, 4:00 AM)8% (Oct 13, 4:00 PM)29.71 "Hg (Oct 16, 4:00 PM)
Average70 °F40%30.14 "Hg
* Reported Oct 5 10:00 PM — Oct 20 10:00 PM, Rustenburg, Weather by CustomWeather, © 2014

Note: Actual official high and low records may vary slightly from our data, if they occured in-between our weather recording intervals... More about our weather records

Advertising

Rustenburg weather history for previous 24 hours

 ConditionsComfort  
Time TempWeatherWind HumidityBarometerVisibility
10:00 PM
Oct 20
70 °FClear.No wind23%30.18 "Hg10 mi
9:00 PM75 °FPassing clouds.3 mph18%30.15 "HgN/A
8:00 PM75 °FPassing clouds.5 mph18%30.15 "HgN/A
7:00 PM77 °FClear.6 mph17%30.12 "Hg10 mi
6:00 PM82 °FClear.9 mph13%30.09 "Hg10 mi
5:00 PM86 °FPassing clouds.9 mph12%30.09 "HgN/A
4:00 PM86 °FSunny.8 mph11%30.09 "Hg10 mi
3:00 PM86 °FPleasantly warm.8 mph12%30.09 "HgN/A
2:00 PM84 °FSunny.6 mph13%30.12 "Hg10 mi
1:00 PM84 °FPassing clouds.9 mph12%30.15 "HgN/A
12:00 PM82 °FSunny.10 mph16%30.15 "Hg10 mi
11:00 AM81 °FPassing clouds.12 mph20%30.18 "HgN/A
10:00 AM79 °FPassing clouds.9 mph21%30.21 "HgN/A
9:00 AM72 °FPassing clouds.6 mph31%30.21 "HgN/A
8:00 AM68 °FSunny.3 mph38%30.21 "Hg10 mi
7:00 AM61 °FSunny.2 mph48%30.21 "Hg10 mi
5:00 AM57 °FPassing clouds.3 mph48%30.18 "HgN/A
4:00 AM57 °FRefreshingly cool.5 mph44%30.15 "HgN/A
3:00 AM54 °FCool.3 mph54%30.12 "HgN/A
2:00 AM61 °FRefreshingly cool.No wind31%30.12 "HgN/A
1:00 AM61 °FRefreshingly cool.5 mph34%30.12 "HgN/A
12:00 AM63 °FMild.3 mph32%30.15 "HgN/A
Weather by CustomWeather, © 2014

See weather overviewHow to use our weather pages